{"data":{"norad_id":62855,"epoch":"2026-09-21T09:08:27.003840Z","epoch_age_seconds":92422,"freshness":"FRESH","line1":"1 62855U 25022B   26264.38086810  .00005217  00000+0  16546-3 0  9990","line2":"2 62855  53.1597 297.6386 0000967  67.4933 292.6172 15.34390020 91908","mean_motion":15.3439002,"eccentricity":9.67e-5,"inclination_deg":53.1597,"raan_deg":297.6386,"arg_perigee_deg":67.4933,"mean_anomaly_deg":292.6172,"bstar":0.00016546,"rev_number":9190,"period_min":93.848368487173,"perigee_km":462.07139091145,"apogee_km":463.39441515069,"semimajor_km":6840.8699030311,"source":"CELESTRAK","updated_at":"2026-09-22T09:00:49.675691Z"}}